Zurück zum Katalog

SL-12 DEB

AktivMEO
NORAD 19753·DEBRIS·🇷🇺 Russia

Gestartet Jan 10, 1989 von Baikonur Cosmodrome

Loading…

Nächste Überflüge (nächste 24 Stunden)

TLE

AktuellSource: Space-Track

Epoche: Sep 14, 2026, 11:49 UTC

1 19753U 89001E   26257.49274069 -.00000011  00000-0  00000-0 0  9999
2 19753  65.0028  69.1154 0024863 212.6702 151.5780  2.13160798293599

Verfolge SL-12 DEB in Echtzeit mit AllMySat

Download on the App Store